FW8513 Weather Reports


Display with metric or nautical units.
time (UTC)temp
F
wind
direction
speed
MPH
gust
MPH
rain 1hr
in
rain 24hr
in
rain mn
in
humidity
%
barometer
mb
20260901113054 51 146 2.0 7.0 0.00 0.00 0.00 64 1013.3
20260901111556 52 151 2.0 6.0 0.00 0.00 0.00 64 1013.5
20260901110050 52 152 3.0 6.0 0.00 0.00 0.00 63 1013.7
20260901104552 52 151 3.0 7.0 0.00 0.00 0.00 63 1013.7
20260901103053 52 147 3.0 5.0 0.00 0.00 0.00 63 1013.7
20260901101550 51 147 3.0 6.0 0.00 0.00 0.00 63 1013.9
20260901094551 51 148 2.0 5.0 0.00 0.00 0.00 63 1014.1
20260901093050 52 149 0.0 3.0 0.00 0.00 0.00 63 1014.2
20260901091544 52 150 1.0 5.0 0.00 0.00 0.00 63 1014.2
20260901090054 52 0 1.0 6.0 0.00 0.00 0.00 62 1014.2
20260901084600 52 151 2.0 3.0 0.00 0.00 0.00 62 1014.2
20260901083049 52 151 1.0 5.0 0.00 0.00 0.00 62 1014.4
20260901081552 52 151 1.0 5.0 0.00 0.00 0.00 62 1014.3
20260901080055 52 152 2.0 3.0 0.00 0.00 0.00 63 1014.4
20260901074555 52 152 3.0 6.0 0.00 0.00 0.00 62 1014.6
20260901073053 53 153 3.0 6.0 0.00 0.00 0.00 61 1014.7
20260901071551 54 155 1.0 3.0 0.00 0.00 0.00 60 1014.5
20260901070049 55 155 3.0 6.0 0.00 0.00 0.00 58 1014.7
20260901064547 56 155 0.0 2.0 0.00 0.00 0.00 58 1014.8
20260901063105 56 155 2.0 6.0 0.00 0.00 0.00 57 1014.8
20260901061551 56 156 5.0 8.0 0.00 0.00 0.00 57 1015.0
20260901060056 56 150 5.0 8.0 0.00 0.00 0.00 58 1014.9
20260901054551 56 144 4.0 8.0 0.00 0.00 0.00 58 1015.2
20260901053055 55 145 2.0 6.0 0.00 0.00 0.00 58 1015.3
20260901051556 57 188 3.0 5.0 0.00 0.00 0.00 55 1015.2
20260901050052 59 198 2.0 5.0 0.00 0.00 0.00 52 1015.3
20260901044546 61 205 2.0 5.0 0.00 0.00 0.00 49 1015.2
20260901043054 62 214 4.0 11.0 0.00 0.00 0.00 48 1015.2
20260901041544 60 186 6.0 13.0 0.00 0.00 0.00 50 1015.0
20260901040054 60 143 5.0 9.0 0.00 0.00 0.00 51 1014.7
20260901034555 61 153 4.0 9.0 0.00 0.00 0.00 50 1014.5
20260901033105 61 147 4.0 8.0 0.00 0.00 0.00 49 1014.4
20260901031544 62 146 4.0 8.0 0.00 0.00 0.00 48 1014.2
20260901030054 63 148 4.0 7.0 0.00 0.00 0.00 47 1014.0
20260901024555 63 147 4.0 7.0 0.00 0.00 0.00 46 1014.1
20260901023052 64 148 3.0 6.0 0.00 0.00 0.00 45 1013.8
20260901021549 67 152 3.0 8.0 0.00 0.00 0.00 42 1014.0
20260901020046 69 155 5.0 8.0 0.00 0.00 0.00 39 1013.7
20260901014556 72 159 6.0 10.0 0.00 0.00 0.00 36 1013.8
20260901013047 73 155 7.0 10.0 0.00 0.00 0.00 34 1013.9
20260901011548 75 169 6.0 10.0 0.00 0.00 0.00 32 1014.0
20260901010043 75 167 4.0 8.0 0.00 0.00 0.00 32 1014.1
20260901004609 76 178 5.0 10.0 0.00 0.00 0.00 31 1014.0
20260901003054 76 169 5.0 10.0 0.00 0.00 0.00 30 1014.1
20260901001553 76 173 3.0 9.0 0.00 0.00 0.00 31 1014.0
20260901000052 76 171 6.0 11.0 0.00 0.00 0.00 30 1014.2
20260831234550 76 229 4.0 7.0 0.00 0.01 0.00 30 1014.4
20260831233050 76 246 5.0 12.0 0.00 0.01 0.00 30 1014.5
20260831231553 76 223 5.0 10.0 0.00 0.01 0.00 30 1014.7
20260831230057 76 190 6.0 11.0 0.00 0.01 0.00 31 1014.8
20260831224545 76 208 6.0 11.0 0.00 0.01 0.00 31 1014.9
20260831223044 76 160 8.0 12.0 0.00 0.01 0.00 32 1014.9
20260831221550 75 315 4.0 11.0 0.00 0.01 0.00 32 1015.0
20260831220049 75 264 5.0 13.0 0.00 0.01 0.00 31 1015.0
20260831214545 74 266 4.0 14.0 0.00 0.01 0.00 32 1015.1
20260831213046 74 302 9.0 16.0 0.00 0.01 0.00 32 1015.3
20260831211552 75 211 4.0 11.0 0.00 0.01 0.00 33 1015.5
20260831210048 73 229 5.0 12.0 0.00 0.01 0.00 34 1015.5
20260831204545 73 216 5.0 14.0 0.00 0.01 0.00 34 1015.5
20260831203059 73 267 5.0 11.0 0.00 0.01 0.00 35 1015.8
20260831201551 72 296 6.0 13.0 0.00 0.01 0.00 35 1015.6
20260831200056 71 230 5.0 14.0 0.00 0.01 0.00 37 1015.8
20260831194606 72 171 3.0 11.0 0.00 0.01 0.00 38 1016.0
20260831193053 70 276 7.0 15.0 0.00 0.01 0.00 39 1016.2
20260831191552 69 0 2.0 11.0 0.00 0.01 0.00 41 1016.1
20260831190116 69 314 6.0 11.0 0.00 0.01 0.00 40 1016.5
20260831184559 68 330 4.0 9.0 0.00 0.01 0.00 42 1016.6
20260831183044 68 313 7.0 12.0 0.00 0.01 0.00 43 1016.8
20260831181601 68 307 7.0 13.0 0.00 0.01 0.00 42 1017.2
20260831180057 68 5 5.0 11.0 0.00 0.01 0.00 43 1017.2
20260831174550 67 355 9.0 12.0 0.00 0.01 0.00 44 1017.3
20260831173046 67 320 4.0 15.0 0.00 0.01 0.00 45 1017.3
20260831171555 66 318 7.0 15.0 0.00 0.01 0.00 46 1017.2
20260831170054 66 344 7.0 15.0 0.00 0.01 0.00 47 1017.2
20260831164553 65 325 9.0 16.0 0.00 0.01 0.00 46 1017.1
20260831163054 65 360 11.0 16.0 0.00 0.01 0.00 46 1017.0
20260831161550 64 316 10.0 16.0 0.00 0.01 0.00 47 1017.0
20260831160047 64 5 12.0 17.0 0.00 0.01 0.00 47 1016.7
20260831154617 63 311 12.0 19.0 0.00 0.01 0.00 47 1016.9
20260831153109 62 292 10.0 19.0 0.00 0.01 0.00 48 1016.6
20260831151610 62 306 13.0 17.0 0.00 0.01 0.00 48 1016.7
20260831144552 59 311 12.0 18.0 0.00 0.01 0.00 51 1016.4
20260831143054 58 296 12.0 17.0 0.00 0.01 0.00 52 1016.3
20260831141552 58 300 12.0 17.0 0.00 0.01 0.00 54 1016.2
20260831140058 57 313 11.0 17.0 0.00 0.01 0.00 55 1016.0
20260831134601 55 309 10.0 15.0 0.00 0.01 0.00 57 1016.1
20260831133103 53 295 9.0 15.0 0.00 0.01 0.00 60 1016.0
20260831131557 53 296 9.0 15.0 0.00 0.01 0.00 60 1015.7
20260831130050 53 293 9.0 14.0 0.00 0.01 0.00 59 1015.4
20260831124553 54 286 8.0 13.0 0.00 0.01 0.00 57 1015.4
20260831123051 54 298 8.0 12.0 0.00 0.01 0.00 58 1015.2
20260831121546 54 307 8.0 15.0 0.00 0.01 0.00 57 1015.0
20260831120056 54 291 8.0 13.0 0.00 0.01 0.00 58 1014.7
20260831114558 54 290 8.0 12.0 0.00 0.01 0.00 57 1014.7